Regional Weather Roundup
Issued by NWS Sterling, VA

Home | Current Version | Previous Version | Graphics & Text | Print | Product List | Glossary On
Versions: 1 2 3 4 5 6 7 8 9 10 11 12 13 14 15 16 17 18 19 20 21 22 23 24 25 26 27 28 29 30 31 32 33 34 35 36 37 38 39 40 41 42 43 44 45 46 47 48 49 50
000
ASUS41 KLWX 072310
RWRLWX

REGIONAL WEATHER ROUNDUP
NATIONAL WEATHER SERVICE BALTIMORE MD/WASHINGTON DC
700 PM EDT TUE JUL 07 2015

Note: "FAIR" indicates few or no clouds below 12,000 feet
with no significant weather and/or obstructions to visibility.
 TC=TEMPERATURE CELSIUS

 * =Non NWS site. Station does not report precipitation (e.g. rain,
    snow, etc.), thunder, or fog.

DCZ001-MDZ009-015-VAZ040>042-051-053>054-080000-
WASHINGTON METRO

CITY           SKY/WX    TMP DP  RH WIND       PRES   REMARKS
WASHINGTON NAT MOSUNNY   89  69  51 SW12      29.98F HX  93
DULLES         MOSUNNY   85  69  58 S9        29.98F
ANDREWS AFB    SUNNY     84  71  63 S8        29.99S
FT BELVOIR     SUNNY     85  72  64 S3        29.99S HX  90
QUANTICO       SUNNY     86  71  60 SW5       30.00R HX  91
COLLEGE PARK*  SUNNY     88  64  45 SW6       29.98S
LEESBURG*      SUNNY     88  73  62 S12G17    29.99F HX  96
MANASSAS*      SUNNY     86  68  54 SW8       30.00S
GAITHERSBURG*  SUNNY     84  66  54 S7        30.03S

$$

MDZ006>007-011-014-080000-
BALTIMORE METRO

CITY           SKY/WX    TMP DP  RH WIND       PRES   REMARKS
BWI AIRPORT    MOSUNNY   86  68  54 SW6       29.97S
MD SCIENCE CTR   N/A     88  65  46 MISG      29.95S HX  90
MARTIN STATE   MOSUNNY   86  73  66 S7        29.98S HX  93
ANNAPOLIS      SUNNY     86  68  54 VRB5      29.98S
FORT MEADE*    SUNNY     79  70  73 SW3       30.00S

$$

MDZ012-015-019>023-080000-
MARYLAND EASTERN SHORE

CITY           SKY/WX    TMP DP  RH WIND       PRES   REMARKS
OCEAN CITY     SUNNY     81  75  82 S7        30.01S
SALISBURY      SUNNY     84  71  65 SW9       30.00F
BAY BRIDGE AP*   N/A     86  64  48 SW6       29.99R
CAMBRIDGE*     SUNNY     86  68  54 SW3         N/A
EASTON*        SUNNY    N/A N/A N/A SW6       30.03S

$$

MDZ017>025-080000-
SOUTHERN MARYLAND

CITY           SKY/WX    TMP DP  RH WIND       PRES   REMARKS
PATUXENT RIVER MOSUNNY   85  72  65 SW6       30.00S HX  91
ST INIGOES     NOT AVBL
LEONARDTOWN*   SUNNY     86  68  54 SW6       30.02S

$$

MDZ003>005-080000-
NORTH CENTRAL MARYLAND

CITY           SKY/WX    TMP DP  RH WIND       PRES   REMARKS
FREDERICK*     SUNNY     86  73  66 SW7       30.00S HX  93
HAGERSTOWN APT SUNNY     86  67  52 S12       29.97S
WESTMINSTER*   SUNNY     88  70  55 S9        30.00S HX  92

$$

MDZ501>502-080000-
WESTERN MARYLAND

CITY           SKY/WX    TMP DP  RH WIND       PRES   REMARKS
OAKLAND*       MOSUNNY   75 N/A N/A SW8       30.10R
CUMBERLAND*    MOSUNNY   84  70  61 S5        30.00F

$$

VAZ025>031-080000-
SHENANDOAH VALLEY

CITY           SKY/WX    TMP DP  RH WIND       PRES   REMARKS
WINCHESTER*    SUNNY     86  70  58 S6        29.99S HX  90
FRONT ROYAL*   FAIR      82  70  65 SW3       29.98S
LURAY*         FAIR      86  70  58 SW9       30.00F HX  90
NEW MARKET*    FAIR      84  68  58 SW6       29.98S
STAUNTON*      SUNNY     86  66  50 S8        30.05F
WAYNESBORO*    FAIR      81  69  65 S9        30.06F

$$

WVZ021-048>050-054>055-080000-
EASTERN WEST VIRGINIA PANHANDLE

CITY           SKY/WX    TMP DP  RH WIND       PRES   REMARKS
MARTINSBURG    SUNNY     84  69  60 S7        29.98S
PETERSBURG*    MOSUNNY   83  65  53 S6        30.00S

$$

VAZ036>039-050-080000-
CENTRAL FOOTHILLS

CITY           SKY/WX    TMP DP  RH WIND       PRES   REMARKS
CHARLOTTESVILL SUNNY     85  67  54 S13       30.01F
CULPEPER*      SUNNY     85  71  62 S5        30.00S
ORANGE*        SUNNY     86  70  58 S7        30.02F HX  90
GORDONSVILLE*  FAIR      84  72  65 S6        30.01S
WARRENTON*     FAIR      85  74  68 S6        29.99F HX  93

$$

VAZ055>057-080000-
NORTH AND CENTRAL PIEDMONT

CITY           SKY/WX    TMP DP  RH WIND       PRES   REMARKS
FREDERICKSBRG* SUNNY     89  71  55 S7        29.99S HX  95
STAFFORD*      SUNNY     84  70  62 S3        30.04S

$$

NCZ024-NYZ072-PAZ021-071-VAZ022-071-080000-
OTHER REGIONAL OBSERVATIONS

CITY           SKY/WX    TMP DP  RH WIND       PRES   REMARKS
NEW YORK CITY  SUNNY     80  71  74 W6        29.96S
PHILADELPHIA   MOSUNNY   88  68  51 SW14      29.96S HX  91
PITTSBURGH     CLOUDY    82  70  66 SW10      29.94S
ROANOKE        MOSUNNY   84  67  56 S6        30.08S
RICHMOND       MOSUNNY   87  70  56 SW8       30.03R HX  92
RALEIGH        MOSUNNY   88  70  55 W8        30.06S HX  93

$$

ANZ530>537-080000-
MARINE OBSERVATIONS

STATION/POSITION TIME  TEMP    WIND        PRES
                       AIR SEA DIR/SP/G
                 (UTC) (F)     (DEG/KT/KT) (MB)
THOMAS PT LIGHT  2300   84     220/ 11       N/A
BALT KEY BRIDGE  2200   87     190/  8/ 11 1014.7F
COVE POINT       2200   86     230/  9/ 12 1016.4F
LEWISETTA        2200   87 82  240/ 10/ 13 1015.8F
SOLOMONS ISLAND  2200      81                N/A
PINEY POINT      2200          240/  6/  8   N/A

$$




USA.gov is the U.S. government's official web portal to all federal, state and local government web resources and services.